Regional Weather Roundup
Issued by NWS

Home | Current Version | Previous Version | Graphics & Text | Print | Product List | Glossary On
Versions: 1 2 3 4 5 6 7 8 9 10 11 12 13 14 15 16 17 18 19 20 21 22 23 24 25 26 27 28 29 30 31 32 33 34 35 36 37 38 39 40 41 42 43 44 45 46 47 48 49 50
036
ASUS45 KTFX 221810
RWRMT
MONTANA REGIONAL WEATHER ROUNDUP
NATIONAL WEATHER SERVICE GREAT FALLS MT
1100 AM MST SUN JAN 22 2017

NOTE: "FAIR" INDICATES FEW OR NO CLOUDS BELOW 12000 FEET WITH NO
SIGNIFICANT WEATHER AND/OR OBSTRUCTIONS TO VISIBILITY.

MTZ001>007-043-221900-
WEST OF THE DIVIDE

CITY           SKY/WX    TMP DP  RH WIND       PRES   REMARKS
KALISPELL      MOSUNNY   24  21  88 CALM      29.78S
MISSOULA       FOG       18  18 100 E3        29.80F VSB<1/4
BUTTE          SUNNY     15   8  73 CALM      29.79F
MULLAN PASS    FOG       25  21  85 SE8       29.62F VSB 3/4 WCI  16
ANACONDA         N/A     27  14  59 SE9       29.78F WCI  17
DEER LODGE       N/A     28  18  64 S10       29.81S WCI  19
EUREKA           N/A     28  25  86 E3        29.81R
HAMILTON         N/A     21  19  93 CALM      29.76
RONAN            N/A     27  25  92 CALM      29.82F VSB 0
$$

MTZ008-052>055-221900-
SOUTHWEST MONTANA

CITY           SKY/WX    TMP DP  RH WIND       PRES   REMARKS
BOZEMAN        SUNNY     18  10  71 E3        29.85S
DILLON         SUNNY    N/A N/A N/A CALM      29.81S
W YELLOWSTONE  LGT SNOW  25  21  86 SW6       29.85F WCI  18
ENNIS          PTSUNNY   32  19  59 S12G17    29.86F WCI  23
TWIN BRIDGES     N/A     17   7  65 E6        29.83F WCI   9
$$

MTZ009-010-012-014-046-048-049-054-221900-
EAST SLOPES AND CENTRAL MONTANA

CITY           SKY/WX    TMP DP  RH WIND       PRES   REMARKS
CUT BANK       CLOUDY    23  22  96 NE6       29.79F FOG     WCI  16
GREAT FALLS    SUNNY     29  22  75 E7        29.81S WCI  22
MALMSTROM AFB  PTSUNNY   26  24  95 E6        29.83S FOG     WCI  19
HELENA         SUNNY     14  11  87 CALM      29.85F FOG
AUGUSTA        PTSUNNY   26  20  78 S8        29.77F WCI  18
BOWMANS CRNR     N/A     27  19  71 S8        29.76F WCI  19
CHOTEAU        FOG       23  23 100 NE5       29.81F VSB 0
CONRAD           N/A     24  23  96 CALM      29.85R VSB 0
POWER            N/A     22  21  96 S3        29.80S
RAYNESFORD       N/A     32  23  70 CALM      29.80F
ULM              N/A     28  22  78 MISG      29.81S
$$

MTZ011-013-016-021-045-047-050-051-221900-
NORTH CENTRAL MONTANA

CITY           SKY/WX    TMP DP  RH WIND       PRES   REMARKS
HAVRE          CLOUDY    28  27  96 SW9       29.87R FOG     WCI  19
LEWISTOWN      MOSUNNY   29  21  72 SE5       29.81S
CHINOOK          N/A     30  28  93 SW7       29.87S WCI  23
DENTON         FOG       23  22  96 E3        29.80F VSB 1/8
FORT BENTON      N/A     28  25  86 MISG      29.87F
GEYSER           N/A     27  23  85 E5        29.80F
GRASS RANGE      N/A     36  22  57 SW10      29.78S WCI  28
JUDITH GAP       N/A     35  19  51 SW8       29.80S WCI  29
ROY              N/A     32  25  76 MISG      29.81S
STANFORD         N/A     30  23  77 SE3       29.80S
WINIFRED       FOG       23  22  99 W5        29.82F VSB 1/16
$$

MTZ017>020-022>027-061-062-221900-
NORTHEAST MONTANA

CITY           SKY/WX    TMP DP  RH WIND       PRES   REMARKS
GLASGOW        CLOUDY    30  24  78 W13       29.84S WCI  20
JORDAN           N/A     29  25  85 NW12      29.87R WCI  19
SIDNEY         CLOUDY    30  26  85 W10       29.85R WCI  21
WOLF POINT     CLOUDY    31  26  82 W12       29.85S WCI  22
PLENTYWOOD       N/A     28  27  93 NW16      29.78S WCI  17
POPLAR           N/A     28  27  93 W12       29.84F WCI  18
SCOBEY           N/A     28  19  69 W14       29.79R WCI  17
$$

MTZ028>42-056>058-221900-
SOUTHCENTRAL AND SOUTHEAST MONTANA

CITY           SKY/WX    TMP DP  RH WIND       PRES   REMARKS
BAKER          FOG       24  22  91 NW14      29.84S VSB 1   WCI  12
BILLINGS       MOSUNNY   29  18  63 SW13      29.86R WCI  19
LIVINGSTON     SUNNY     38  16  40 W17       29.81S WCI  28
MILES CITY     SNOW      17  14  88 W6        29.89R VSB<1/4 WCI   9
BIG TIMBER     SUNNY     37  18  44 W15       29.84S WCI  28
EKALAKA          N/A     26  18  72 SW6       29.82R WCI  19
FORSYTH          N/A     23  18  80 CALM      29.88R
HARLOWTON        N/A     34  20  55 W9        29.81S WCI  27
LAUREL           N/A     25  12  57 W6        29.86R WCI  18
$$

REGIONAL REPORTS...DAKOTAS

CITY           SKY/WX    TMP DP  RH WIND       PRES   REMARKS
WILLISTON      CLOUDY    30  27  88 W15       29.81S WCI  19
MINOT          CLOUDY    33  30  88 W8        29.76R WCI  26
DICKINSON      LGT SNOW  25  23  92 NW20      29.79S FOG     WCI  11
BEACH          CLOUDY    25  25 100 W15       29.86S FOG     WCI  12
CROSBY         CLOUDY    30  30 100 W10       29.79S WCI  21
TIOGA          CLOUDY    28  28 100 W16       29.78S WCI  17
WATFORD CITY   CLOUDY    28  27  93 W12       29.82R WCI  18
BISMARCK       CLOUDY    33  29  85 NW10      29.81R WCI  25
GRAND FORKS    CLOUDY    35  29  78 W8        29.74S WCI  29
FARGO          CLOUDY    35  33  92 W6        29.75F FOG     WCI  30
BUFFALO SD       N/A     27  21  78 NW13      29.77R WCI  16
RAPID CITY     SUNNY     39  25  57 N5        29.85S
$$

REGIONAL REPORTS...WYOMING/IDAHO/WASHINGTON

CITY           SKY/WX    TMP DP  RH WIND       PRES   REMARKS
GILLETTE       SUNNY     36  23  59 W13       29.85S WCI  27
SHERIDAN       SUNNY     35  19  52 VRB5      29.86R
BUFFALO WY     SUNNY     34  19  54 S10       29.85R WCI  26
CODY           SUNNY     36  13  38 CALM      29.86S
YELLOWSTONE LA   N/A     19  16  88 CALM      29.87S
IDAHO FALLS    CLOUDY    22  20  92 N3        29.88F
SALMON         CLOUDY    10   9  92 SE5       29.83F
BOISE          CLOUDY    40  24  53 SE18      29.67F
SPOKANE        PTSUNNY   37  31  78 E12       29.63S WCI  29
$$

REGIONAL REPORTS...ALBERTA

CITY           SKY/WX    TMP DP  RH WIND       PRES   REMARKS
EDMONTON       CLOUDY    16   9  73 N3        29.93F
CALGARY        CLOUDY    23  21  93 NE3       29.82S FOG
LETHBRIDGE     CLOUDY    25  25 100 CALM      29.84S FOG
MEDICINE HAT   LGT SNOW  28  27  93 NW6       29.86S FOG     WCI  22
WATERTON GATE    N/A     25  23  93 NE5         N/A
CARDSTON         N/A     25  23  93 N2          N/A
MILK RIVER       N/A     27  25  93 N1          N/A
$$

REGIONAL REPORTS...SASKATCHEWAN

CITY           SKY/WX    TMP DP  RH WIND       PRES   REMARKS
SWIFT CURRENT  CLOUDY    23  23 100 NW14G20   29.78S WCI  11
REGINA         CLOUDY    27  23  86 NW15      29.75R WCI  15
SASKATOON      FLURRIES  21  16  79 N15       29.82R WCI   8
CYPRESS HILLS    N/A     23  21  93 NW2         N/A
VAL MARIE        N/A     27  25  93 N7          N/A  WCI  19
ROCKGLEN         N/A     25  23  93 NW8         N/A  WCI  16
ASSINIBOIA       N/A     18  16  93 N2          N/A
$$




USA.gov is the U.S. government's official web portal to all federal, state and local government web resources and services.